Location: Zagreb
(45.8000°N, 16.0000°E)
Time: 00:54:26
(UTC+01:00)

Transit 2A Rocket - Pass Details

Date: 06 October 2020
Orbit: 586 x 916 km, 66.7° (Epoch: 28 October)

Event Time Altitude Azimuth Distance (km) Brightness Sun altitude
Rises 16:25:42 0° 222° (SW) 3,521 9.8 19.0°
Reaches altitude 10° 16:28:14 10° 225° (SW) 2,597 9.6 18.6°
Maximum altitude 16:34:18 63° 307° (NW) 1,013 6.1 17.7°
Drops below altitude 10° 16:40:18 10° 28° (NNE) 2,569 7.3 16.8°
Sets 16:42:48 0° 32° (NNE) 3,481 7.9 16.4°
